Dewpoint
63 64 63 61 60 56 57 60 61 62 63 63 63 65 67 68 69 70 70 72 72 72 73 73 73 74 73 73 73 73 73 73 74 73 73 74 74 74 74 74 73 73 72 73 73 73 73 73 72 74 73 73 75 76 76 76 76 77 76 76 76 77 75
62 63 64 62 61 59 58 60 61 62 63 63 63 66 67 69 69 70 70 72 72 72 73 73 73 73 73 73 74 73 73 73 74 75 74 74 75 74 75 74 74 73 73 73 73 73 74 73 72 73 73 74 74 75 75 75 74 75 75 75 75 75 76
61 62 63 62 61 61 60 60 60 61 61 62 63 66 67 69 70 70 71 72 72 72 73 73 73 73 74 74 74 73 73 73 74 74 73 74 74 74 75 74 74 74 74 74 73 73 74 74 73 73 73 73 73 75 75 75 75 75 75 75 74 74 74
61 62 64 63 61 61 62 61 61 61 62 62 64 66 68 69 70 70 71 72 72 72 72 72 73 73 74 74 73 73 73 73 74 74 73 74 74 74 74 74 75 75 74 74 74 75 74 73 72 73 75 73 73 74 74 75 75 75 76 76 75 74 74
61 61 64 63 61 61 62 64 63 63 63 63 64 67 68 69 70 70 71 72 72 72 72 72 72 73 74 74 73 73 74 73 74 74 73 73 73 74 74 73 74 74 74 74 74 75 75 73 72 74 74 73 72 73 74 74 74 75 75 75 75 75 75
61 62 64 63 62 61 61 64 64 65 65 66 67 67 68 69 70 70 71 72 72 72 73 72 72 73 73 73 73 73 74 74 74 74 73 73 72 73 73 72 72 72 73 73 74 74 74 73 72 73 73 72 72 73 74 74 74 74 74 75 75 74 75
61 62 63 63 62 62 63 64 64 65 64 64 66 69 69 69 69 70 70 71 72 72 72 72 72 72 73 73 72 73 73 73 74 74 73 73 72 72 72 72 72 72 72 74 73 73 73 72 72 73 72 72 73 73 73 73 74 75 74 75 75 75 74
61 62 64 63 63 62 63 64 64 64 65 66 67 69 69 69 69 70 70 71 71 71 72 72 72 72 72 72 72 72 72 73 74 74 73 72 72 72 72 72 72 72 72 73 73 73 72 72 71 73 72 72 72 72 73 73 73 74 74 75 75 75 75
63 63 64 65 65 65 63 64 64 64 65 66 66 67 69 69 69 70 70 71 71 71 71 72 72 71 72 72 72 72 72 72 73 73 73 72 72 72 71 72 72 72 72 72 72 72 72 72 72 72 73 72 72 72 72 73 73 73 74 74 74 74 74
63 65 67 67 67 70 68 66 65 65 65 67 66 66 68 69 70 70 71 71 71 71 72 71 71 72 71 72 71 72 72 71 72 72 71 71 71 71 71 71 71 72 71 71 71 71 72 72 72 72 73 72 72 72 72 73 73 73 73 74 74 74 74
64 65 67 68 68 68 68 67 64 64 65 66 66 66 67 69 70 70 70 71 71 71 71 71 70 71 71 71 71 71 71 71 71 71 70 70 70 70 71 70 70 71 71 70 70 71 71 72 72 72 72 72 72 73 73 73 74 74 73 73 74 74 74
64 65 65 65 66 66 66 67 67 66 65 66 66 67 68 69 70 70 70 70 70 70 70 70 71 71 71 70 70 69 69 70 70 70 70 69 69 70 70 70 69 70 71 70 69 69 70 71 71 72 72 72 72 72 73 73 74 74 74 73 73 74 74
64 65 65 66 66 66 66 66 66 67 68 68 67 68 68 69 69 69 69 69 70 70 70 71 70 70 70 70 70 69 69 69 69 70 69 69 68 69 69 69 69 69 69 70 69 68 69 70 71 72 72 72 72 72 73 73 73 74 74 74 73 73 73
66 65 65 66 66 66 66 66 67 67 68 69 69 69 69 69 69 69 69 69 69 70 70 71 70 70 70 71 71 69 70 70 70 70 72 70 68 67 67 68 68 68 69 70 69 68 68 69 70 71 71 71 72 73 74 73 73 73 74 74 73 73 73
63 64 65 65 66 66 66 66 66 67 67 67 67 68 68 68 68 69 69 69 69 69 70 70 70 70 71 71 70 70 70 70 71 71 73 73 72 71 71 71 69 68 68 69 69 68 68 68 69 70 71 71 72 73 74 74 73 73 74 74 74 73 72
63 64 65 65 66 66 66 66 66 66 66 67 67 68 68 68 68 69 69 69 70 70 71 70 70 70 70 71 71 71 70 71 71 72 73 72 72 72 71 71 71 71 70 69 68 69 68 68 69 69 71 72 72 73 73 73 74 75 76 76 75 74 74
63 63 64 65 65 66 66 66 66 66 66 66 67 67 68 68 68 69 68 69 70 70 71 70 70 70 71 71 71 73 74 73 72 72 72 71 71 71 71 71 71 71 71 71 70 69 70 69 69 69 69 70 71 72 74 73 72 68 65 67 70 75 74
63 63 64 64 65 65 66 66 66 66 66 66 67 68 68 67 68 68 68 69 71 71 71 71 70 69 69 70 71 72 72 72 72 71 71 71 71 71 70 70 70 70 71 71 71 71 70 69 69 69 68 69 71 72 72 70 68 63 65 66 66 71 73
63 64 64 64 64 65 65 65 65 65 66 66 67 67 68 69 69 69 69 70 70 71 70 70 70 68 69 71 71 71 71 72 72 71 70 70 71 71 70 70 70 70 71 72 72 72 70 69 69 68 70 69 70 71 71 67 63 63 65 65 65 68 72
64 64 64 64 65 64 65 65 65 66 66 67 67 68 69 69 69 69 69 69 69 69 69 69 69 69 70 70 69 69 70 70 70 70 69 70 70 70 70 70 69 70 71 73 73 72 71 70 69 69 69 69 69 70 68 66 63 62 63 63 65 68 71
63 64 64 64 65 65 65 65 66 66 67 67 68 68 68 69 69 69 69 69 68 68 68 68 68 68 68 69 69 69 69 70 71 70 70 70 71 71 70 70 70 70 71 71 72 71 71 71 71 70 71 71 69 68 65 61 58 59 60 60 63 66 71
64 64 64 65 64 65 65 66 66 66 67 68 68 68 68 68 69 68 68 68 67 67 67 67 67 67 67 67 68 68 69 69 70 70 70 70 71 71 71 70 70 71 72 71 71 71 71 71 71 70 71 70 69 67 63 59 56 56 57 58 60 68 71
64 64 65 65 66 66 66 67 67 67 68 68 68 68 68 68 68 68 67 67 67 67 67 66 66 66 67 67 67 68 68 68 69 69 69 69 69 69 69 69 70 71 72 71 71 71 70 70 71 71 71 71 69 66 64 62 57 55 55 56 57 67 70
63 64 65 65 66 66 66 67 68 68 68 68 68 68 68 68 68 67 67 67 67 66 66 66 66 66 67 67 67 67 67 68 68 68 68 68 68 69 70 70 70 70 72 70 71 71 70 70 69 70 70 71 68 65 62 60 58 54 53 54 56 63 70
62 63 64 64 64 64 64 65 65 65 65 65 65 66 66 65 65 63 63 64 63 64 65 65 66 66 66 67 67 67 68 68 68 68 67 68 68 69 69 69 69 70 70 70 70 70 70 70 69 69 68 68 67 66 63 61 61 54 53 53 55 62 69
61 60 62 64 64 64 64 64 63 63 63 63 63 64 64 64 64 62 62 62 60 61 62 63 64 64 66 67 67 68 68 68 68 67 67 68 69 69 69 69 69 69 69 70 70 70 69 69 68 67 66 65 64 64 62 61 61 58 52 52 53 57 69
60 59 59 61 62 63 61 62 62 61 62 62 63 62 60 61 61 61 61 59 59 60 61 63 63 63 63 64 64 66 67 67 67 67 68 68 68 68 68 67 67 67 67 68 67 66 66 66 65 64 63 63 63 63 63 63 61 61 53 51 51 53 61
59 56 54 56 57 56 57 58 61 61 61 62 59 59 61 59 59 58 58 57 57 57 59 60 60 61 62 63 64 65 65 65 66 68 68 68 67 66 66 66 66 66 66 65 65 64 63 63 63 62 62 63 63 63 63 64 63 62 57 54 52 52 53
51 52 53 53 53 55 54 54 55 56 58 58 59 58 59 57 57 58 59 58 58 58 58 58 59 60 61 62 63 63 63 64 64 65 66 67 67 66 65 65 64 64 64 64 63 63 62 62 62 62 62 62 63 63 63 63 64 62 63 58 54 53 54
49 50 50 51 53 54 55 54 55 55 55 55 56 56 56 56 57 58 56 57 58 58 61 62 61 61 62 63 61 62 64 63 63 63 64 66 66 66 64 64 64 64 64 63 63 62 62 62 62 61 61 61 61 62 63 63 62 62 61 61 55 53 53
48 49 50 51 52 55 54 53 54 54 55 56 56 57 57 57 57 58 57 58 59 58 58 58 60 59 60 60 61 61 61 62 61 60 60 59 60 60 61 60 61 60 61 64 62 61 61 61 61 61 61 61 60 61 62 62 60 59 60 60 60 56 54
48 49 50 51 52 53 53 53 54 54 54 54 55 56 58 57 56 56 56 59 61 60 60 59 59 59 56 56 59 60 60 56 55 56 56 56 56 56 55 55 57 56 55 56 61 62 61 61 60 59 59 59 60 61 61 59 57 56 57 59 59 60 57
50 49 48 49 53 54 51 51 50 50 51 52 55 56 57 57 58 58 59 57 55 56 60 63 60 59 55 54 55 56 55 55 54 53 54 53 52 52 53 52 51 53 56 55 56 61 63 63 62 62 61 61 60 57 55 55 54 53 54 54 54 55 56
55 55 55 53 53 54 54 54 54 53 53 53 53 54 55 55 56 57 57 57 58 59 60 61 60 55 53 54 57 57 58 59 60 55 51 52 52 52 51 51 52 52 53 53 53 56 58 60 61 60 61 60 57 55 56 55 55 54 53 53 52 52 53
55 55 54 53 54 55 53 54 54 55 55 55 55 54 54 54 56 56 56 56 57 58 59 61 62 58 53 54 56 58 58 56 54 52 50 50 51 51 51 52 52 52 52 53 52 53 54 55 55 55 54 56 56 55 54 54 53 54 47 51 46 49 52
54 55 55 56 56 55 55 56 55 54 54 54 55 55 55 56 55 56 57 57 57 57 58 58 55 53 54 54 54 55 55 53 52 51 51 49 49 50 51 50 46 48 50 51 53 49 47 50 54 54 52 51 52 55 54 52 53 45 42 41 42 42 42
55 55 54 55 54 55 55 54 55 55 54 54 56 56 56 55 55 56 56 56 56 56 55 54 54 54 55 57 56 57 57 54 51 51 50 49 48 49 50 48 49 42 43 48 48 44 41 41 43 47 51 57 51 52 48 46 43 41 40 41 42 40 40
56 55 56 55 55 55 55 56 55 54 55 55 56 55 55 56 56 55 55 55 56 57 55 54 54 53 54 56 57 59 58 56 57 55 52 52 51 50 50 48 48 49 45 42 43 42 40 40 41 41 42 45 50 55 51 47 41 40 40 40 40 40 40